Regional Weather Roundup
Issued by NWS

Home | Current Version | Previous Version | Text Only | Print | Product List | Glossary Off
Versions: 1 2 3 4 5 6 7 8 9 10 11 12 13 14 15 16 17 18 19 20 21 22 23 24 25 26 27 28 29 30 31 32 33 34 35 36 37 38 39 40 41 42 43 44 45 46 47 48 49 50

000
ASUS45 KCYS 110310
RWRWY

WYOMING REGIONAL WEATHER ROUNDUP
NATIONAL WEATHER SERVICE CHEYENNE WY
800 PM MST WED FEB 10 2016

NOTE:  "FAIR" INDICATES FEW OR NO CLOUDS BELOW 12,000 FEET
WITH NO SIGNIFICANT WEATHER AND/OR OBSTRUCTIONS TO VISIBILITY.

WYZ001-110400-
YELLOWSTONE NATIONAL PARK

CITY           SKY/WX    TMP DP  RH WIND       PRES   REMARKS
LK YELLOWSTONE   N/A     25  19  78 CALM      30.35F
W YELLOWSTONE  NOT AVBL

$$
WYZ002>013-054>058-071-098>099-110400-
NORTHERN WYOMING

CITY           SKY/WX    TMP DP  RH WIND       PRES   REMARKS
JACKSON        CLEAR     12  10  92 CALM      30.35F
CODY           FAIR      52  19  28 W13G21    30.15S
GREYBULL       FAIR      34  26  72 S6        30.14F WCI  29
WORLAND        FAIR      32  26  78 CALM      30.15F
SHERIDAN       FAIR      38  25  59 W7        30.10R WCI  33
BUFFALO        FAIR      44  24  45 SW7       30.13S
GILLETTE       FAIR      36  25  64 NW3       30.11R
HULETT         FAIR      37  27  65 E5        30.10F WCI  34
NEWCASTLE      FAIR      32  23  69 W7        30.10R WCI  26

$$
WYZ014>020-022>026-101>103-110400-
CENTRAL WYOMING

CITY           SKY/WX    TMP DP  RH WIND       PRES   REMARKS
BIG PINEY      FAIR      32  17  54 VRB3      30.35S
PINEDALE         N/A     30  19  64 W8        30.34F WCI  23
DUBOIS         FAIR      34  14  44 NW9G18    30.27F WCI  26
LANDER         FAIR      37  19  48 W5        30.19R WCI  33
RIVERTON       FAIR      32  18  56 CALM      30.20S
CASPER         FAIR      36  22  56 SW13      30.17S WCI  27
DOUGLAS        FAIR      33  24  69 CALM        N/A

$$
WYZ021-027>030-104>119-110400-
SOUTHERN WYOMING

CITY           SKY/WX    TMP DP  RH WIND       PRES   REMARKS
EVANSTON       FAIR      32  13  45 SW9       30.40F WCI  24
FORT BRIDGER   CLEAR     37  19  48 W21       30.41S WCI  27
ROCK SPRINGS   FAIR      35  20  54 W20       30.33R WCI  24
DIXON          FAIR      19  10  70 CALM      30.38S
RAWLINS        FAIR      33  18  53 SW14      30.27F WCI  23
SARATOGA       FAIR      32  18  55 SE5       30.31S WCI  27
LARAMIE        FAIR      28  18  66 SE9       30.23S WCI  19
CHEYENNE       FAIR      39  17  41 NW12      30.18S WCI  32
TORRINGTON     FAIR      36  24  62 W8        30.13R WCI  30
PINE BLUFFS    FAIR      37  23  56 W14       30.17R WCI  29

$$



USA.gov is the U.S. government's official web portal to all federal, state and local government web resources and services.